DECAYED
Showing default

FLOCK 4X 37, 51009 (Decayed)

Orbit data source: Space-Track

FLOCK 4X 37, 51009 was a payload satellite owned by Planet (US) in LEO that was launched on Thu, 13 Jan 2022 UTC via an FALCON 9 launch vehicle from the Air Force Eastern Test Range (AFETR). Payload-class satellites include a variety of spacecraft equipped with specific instruments for various scientific and technological missions. These include communications satellites like Starlink; space stations such as the ISS; scientific satellites like the Hubble; Earth observation satellites from companies like Planet Labs, Umbra, and HawkEye 360; GPS; miniature CubeSats for education and research; and military/defense satellites.

Not visible in the next 10 days
Identifier
51009, 2022-002AB
Orbit
Decayed
Last TLE update
10 months ago
Origin
Manufacturer
Planet
Mission
Decayed Commercial Imaging
Bus & Motor
CUBESAT 3U, Unknown motor
Mass
5.7 kg wet, 5.7 kg dry
Launch date (UTC)
2022-01-13 (3 years ago)
Launch vehicle
FALCON 9
Launch site
Air Force Eastern Test Range (AFETR)
Object type
Payload
Rocket body
Debris
Shape & HBR
Box + 2 Pan, 0.3 m
Radar Cross Section
0.108 m², Small (<0.1 m²)

Expand to show TLE details & history

TLE from 10 months ago
0 FLOCK 4X 37
1 51009U 22002AB  24242.21125135  .07709430  24775-5  20470-2 0  9990
2 51009  97.3667 322.9453 0009289 246.6660 113.3656 16.28323632146496
Epoch: 2024-08-29T05:04Z
TLE epoch observation values (Epoch: 2024-08-29T05:04:12.116Z)
Latitude
-0.00007°
Longitude
-91.00704°
Altitude
202.713 km
Speed
7.783 km/s
True Right ascension
21h 31m 46s
True Declination
0° 00' 00"
Sunlit
Object was in full shadow at epoch
Visualization orbit readout
Visualization observer readout
Orbital elements
Apogee altitude
199.975 km
Perigee altitude
187.765 km
Semi-major axis
6,572.007 km
Eccentricity
0.00093
Inclination
97.3667°
RAAN
322.9453°
Arg. of periapsis
246.666°
True anomaly
Unknown
Mean anomaly
113.3656°
Eccentric anomaly
Unknown
Mean motion
4.07377 °/min
Orbital period
88.37 mins
BSTAR
0.002047
Loading maneuver chart data...
Loading SW <> Apogee altitude chart data...

FLOCK 4X 37 Visibility

Observer location: undefined°, undefined°

This satellite is decayed
Span
Click to sort rows by Start time (UTC) header in descending order
Start Az.
Max El. time (UTC)
Max El. Az.
Max El.
End time (UTC)
End Az.
|